Location: B
(0.0000°N, 0.0000°E)
Time: 02:52:09
(UTC+02:00)

Daily predictions for brighter satellites

Satellite Brightness Start Highest point End
(mag) Time Altitude Azimuth Time Altitude Azimuth Time Altitude Azimuth
Ariane H10+ 3.5 05:22:57 85° NNW 05:23:11 86° N 05:49:40 10° E
Milstar 3 3.8 05:26:36 48° NNW 05:28:46 60° NE 05:41:35 10° ESE
Ariane H10 3.3 05:53:36 60° NNW 05:54:16 64° NNE 06:12:53 10° E
Cosmos 1844 Rocket 4.0 05:54:05 10° NNW 06:06:02 - SSE 05:56:42 29° NNW
CZ-4B R/B 4.1 06:02:51 10° N 06:06:21 36° NNW 06:06:21 36° NNW
VEP-3 4.4 06:08:14 33° SSW 06:10:22 36° S 06:38:52 10° ESE
VEP-3 4.4 06:08:13 33° SSW 06:10:22 36° S 06:38:52 10° ESE
VEP-3 4.4 06:08:15 33° SSW 06:10:23 36° S 06:38:52 10° ESE
VEP-3 4.4 06:08:14 33° SSW 06:10:23 36° S 06:38:52 10° ESE
Cosmos 1603 3.6 06:11:59 68° S 06:12:46 87° ESE 06:18:28 10° NNE
ATLAS 3B R/B 3.4 06:06:52 10° N 06:13:02 48° ENE 06:19:13 10° SE
Cosmos 1842 Rocket 4.3 06:13:29 40° SE 06:14:35 50° E 06:18:49 10° NNE
Cosmos 468 Rocket 4.2 06:17:09 40° SSE 06:18:56 65° ESE 06:24:01 10° NNE
ARIANE 5 DEB (SYLDA) 4.4 06:11:07 30° W 06:23:01 90° N 06:29:12 10° E
SL-16 R/B 4.3 06:27:53 11° NW 06:27:53 11° NW 06:28:16 10° NW
Cosmos 1607 3.9 06:18:37 10° NNW 06:24:55 60° WSW 06:31:11 10° S
Meteor 1-31 Rocket 4.0 06:26:28 10° N 06:28:43 31° NNW 06:28:43 31° NNW
Cosmos 371 Rocket 3.5 06:28:44 29° S 06:31:09 67° ESE 06:35:52 10° NNE
Cosmos 2278 Rocket 3.0 06:25:54 10° N 06:31:24 53° ENE 06:36:55 10° SSE
ARIANE 5 DEB (SYLDA) 4.0 06:28:00 38° WSW 06:31:28 72° S 06:35:43 10° E
Cosmos 1535 Rocket 4.3 06:27:31 23° S 06:31:33 79° W 06:37:44 10° N
BREEZE-M (TANK) 3.9 06:30:11 29° NW 06:32:39 76° SW 06:49:22 10° SE
Cosmos 1076 Rocket 3.3 06:29:22 10° N 06:33:36 71° W 06:34:10 61° SW
ISS -2.6 06:34:07 18° N 06:36:12 41° NE 06:39:19 10° SE
Cosmos 1727 Rocket 3.9 06:31:40 10° NNW 06:37:41 60° W 06:43:46 10° S
CZ-3 R/B 4.5 06:35:13 15° SW 06:37:51 16° SSW 06:44:10 10° S
PSLV R/B 3.4 06:37:50 54° SSW 06:37:54 54° SSW 06:44:54 10° ESE
Cosmos 1763 Rocket 4.3 06:33:17 10° S 06:38:22 50° ESE 06:43:21 10° NNE
Cosmos 1242 Rocket 3.3 06:38:41 17° SSE 06:41:20 52° E 06:44:55 10° NNE
USA 238 DEB 4.1 06:34:54 10° NNW 06:42:00 68° ENE 06:49:07 10° SSE
USA 238 4.1 06:35:01 10° NNW 06:42:07 68° ENE 06:49:14 10° SSE
IRAS Rocket 4.2 06:37:30 10° NNE 06:43:03 87° ESE 06:48:40 10° SSW
Cosmos 1934 Rocket 3.9 06:37:35 10° S 06:43:53 75° W 06:50:04 10° N
Cosmos 1766 Rocket 3.4 06:42:53 10° N 06:47:18 81° W 06:51:42 10° S
ERS-2 4.2 06:51:13 10° NE 06:54:23 28° ESE 06:57:32 10° SSE
ATLAS 3B CENTAUR R/B 3.8 06:42:38 22° SW 06:55:25 77° SSE 07:02:05 10° ENE
Cosmos 1844 4.3 06:51:38 10° NW 06:56:39 33° WSW 07:01:44 10° SSW
Radarsat Rocket 4.0 06:50:24 10° NNE 06:57:02 80° WNW 07:03:03 10° SSW
Landsat 4 4.1 06:56:49 24° SSW 06:58:29 38° WSW 07:01:58 10° NNW
SWIFT 3.5 06:55:25 11° NW 06:59:17 40° NNE 07:03:19 10° E
Cosmos 841 Rocket 3.7 06:59:23 10° S 07:04:38 75° ESE 07:09:53 10° NNE
Timation 1 Rocket 4.2 06:59:34 10° NNW 07:05:31 74° WSW 07:11:30 10° S
Cosmos 968 Rocket 4.2 07:05:16 10° NW 07:09:40 30° WSW 07:14:06 10° SSW
Ariane H10-3 3.9 07:07:57 16° W 07:12:32 87° S 07:33:31 10° E
Ariane H10 2.9 07:08:24 10° WNW 07:13:51 43° N 07:16:54 10° ENE
CZ-2C R/B 3.1 07:13:00 10° NNE 07:17:55 58° ESE 07:22:42 10° S
Cosmos 1408 Rocket 4.3 07:14:13 10° NNW 07:18:04 30° W 07:21:55 10° SSW
MTI 4.0 07:15:10 10° S 07:18:19 46° WSW 07:21:26 10° NNW
Cosmos 1328 4.1 07:21:21 10° NNW 07:25:05 42° W 07:28:52 10° SSW
Okean-O 4.2 07:24:09 10° NW 07:26:53 16° WNW 07:29:24 11° WSW
ASTRO E2 3.7 07:23:23 10° SW 07:27:08 38° SSE 07:30:51 10° ENE
EPKM 3.2 07:27:26 10° WNW 07:28:56 16° NNW 07:30:27 10° NNE
Cosmos 2297 3.9 07:25:27 10° NNW 07:31:05 80° ENE 07:36:47 10° SSE
Ariane H10 2.8 07:35:03 10° SW 07:36:47 26° S 07:38:45 10° ESE
Cosmos 1943 4.2 07:34:52 10° SW 07:39:23 25° WNW 07:43:56 10° NNW
deb Centaur AC-2 4.1 07:35:08 10° WSW 07:39:26 75° NNW 07:44:10 10° NE
Ariane Rocket 3.0 07:35:54 10° NNE 07:40:57 90° ENE 07:46:01 10° SSW
GPS 2-14 Rocket1 2.9 07:37:15 10° WSW 07:41:20 67° SSE 07:45:19 10° ENE
Abrixas 2.3 07:38:56 10° SW 07:41:33 55° NW 07:44:08 10° NNE
Cosmos 2123 Rocket 4.0 07:35:34 10° N 07:41:50 77° W 07:48:04 10° S
IDEFIX/ARIANE 42P 2.7 07:37:56 10° N 07:42:58 54° WNW 07:48:03 10° SSW
Sylda 5 4.0 07:41:18 10° WSW 07:45:52 63° SSE 08:08:12 10° E
ARIANE 5 DEB (SYLDA 5A) 4.4 08:26:44 10° W 08:55:49 89° N 09:00:01 10° E
